Time,TemperatureF,DewpointF,PressureIn,WindDirection,WindDirectionDegrees,WindSpeedMPH,WindSpeedGustMPH,Humidity,HourlyPrecipIn,Conditions,Clouds,dailyrainin,SoftwareType,DateUTC
2013-03-08 00:02:00,31.0,24.0,30.30,East,96,0.0,0.0,75,0.00,,,0.00,,2013-03-08 05:02:00,
2013-03-08 00:12:00,31.0,24.0,30.30,East,96,0.0,0.0,75,0.00,,,0.00,,2013-03-08 05:12:00,
2013-03-08 00:22:00,31.0,24.0,30.31,East,96,0.0,0.0,75,0.00,,,0.00,,2013-03-08 05:22:00,
2013-03-08 00:32:00,31.0,24.0,30.31,East,96,0.0,0.0,75,0.00,,,0.00,,2013-03-08 05:32:00,
2013-03-08 00:42:00,31.0,24.0,30.31,East,96,0.0,0.0,75,0.00,,,0.00,,2013-03-08 05:42:00,
2013-03-08 00:52:00,31.0,24.0,30.31,East,96,0.0,0.0,75,0.00,,,0.00,,2013-03-08 05:52:00,
2013-03-08 01:01:00,31.0,24.0,30.31,East,96,0.0,1.0,75,0.00,,,0.00,,2013-03-08 06:01:00,
2013-03-08 01:11:00,31.0,24.0,30.31,East,96,0.0,1.0,75,0.00,,,0.00,,2013-03-08 06:11:00,
2013-03-08 01:22:00,32.0,25.0,30.31,East,96,0.0,0.0,75,0.00,,,0.00,,2013-03-08 06:22:00,
2013-03-08 01:32:00,32.0,25.0,30.32,East,96,0.0,0.0,75,0.00,,,0.00,,2013-03-08 06:32:00,
2013-03-08 01:42:00,32.0,25.0,30.32,East,96,0.0,0.0,75,0.00,,,0.00,,2013-03-08 06:42:00,
2013-03-08 01:52:00,32.0,25.0,30.32,WSW,256,0.0,3.0,75,0.00,,,0.00,,2013-03-08 06:52:00,
2013-03-08 02:01:00,33.0,26.0,30.31,NNE,30,0.0,4.0,75,0.00,,,0.00,,2013-03-08 07:01:00,
2013-03-08 02:11:00,33.0,26.0,30.31,NNE,30,0.0,4.0,75,0.00,,,0.00,,2013-03-08 07:11:00,
2013-03-08 02:22:00,34.0,27.0,30.31,NE,51,1.0,6.0,75,0.00,,,0.00,,2013-03-08 07:22:00,
2013-03-08 02:32:00,34.0,27.0,30.31,NE,42,0.0,3.0,75,0.00,,,0.00,,2013-03-08 07:32:00,
2013-03-08 02:42:00,34.0,27.0,30.31,NE,42,0.0,3.0,75,0.00,,,0.00,,2013-03-08 07:42:00,
2013-03-08 02:51:00,34.0,27.0,30.31,North,9,2.0,5.0,75,0.00,,,0.00,,2013-03-08 07:51:00,
2013-03-08 03:01:00,34.0,27.0,30.31,NW,319,1.0,5.0,75,0.00,,,0.00,,2013-03-08 08:01:00,
2013-03-08 03:11:00,34.0,27.0,30.31,NW,319,1.0,5.0,75,0.00,,,0.00,,2013-03-08 08:11:00,
2013-03-08 03:22:00,34.0,27.0,30.31,ENE,68,1.0,4.0,75,0.00,,,0.00,,2013-03-08 08:22:00,
2013-03-08 03:32:00,34.0,27.0,30.32,NNW,346,1.0,4.0,75,0.00,,,0.00,,2013-03-08 08:32:00,
2013-03-08 03:42:00,34.0,27.0,30.32,NNW,346,1.0,4.0,75,0.00,,,0.00,,2013-03-08 08:42:00,
2013-03-08 03:52:00,34.0,27.0,30.32,NNW,343,1.0,4.0,75,0.00,,,0.00,,2013-03-08 08:52:00,
2013-03-08 04:03:00,34.0,27.0,30.32,North,5,3.0,7.0,75,0.00,,,0.00,,2013-03-08 09:03:00,
2013-03-08 04:11:00,34.0,27.0,30.32,North,5,3.0,7.0,75,0.00,,,0.00,,2013-03-08 09:11:00,
2013-03-08 04:21:00,34.0,27.0,30.32,NNW,341,1.0,6.0,75,0.00,,,0.00,,2013-03-08 09:21:00,
2013-03-08 04:32:00,34.0,27.0,30.32,NW,318,0.0,6.0,75,0.00,,,0.00,,2013-03-08 09:32:00,
2013-03-08 04:42:00,34.0,27.0,30.32,NW,318,0.0,6.0,75,0.00,,,0.00,,2013-03-08 09:42:00,
2013-03-08 04:52:00,34.0,27.0,30.33,NNE,25,0.0,4.0,75,0.00,,,0.00,,2013-03-08 09:52:00,
2013-03-08 05:01:00,34.0,27.0,30.34,NNW,329,0.0,4.0,75,0.00,,,0.00,,2013-03-08 10:01:00,
2013-03-08 05:11:00,34.0,27.0,30.34,NNW,329,0.0,4.0,75,0.00,,,0.00,,2013-03-08 10:11:00,
2013-03-08 05:21:00,34.0,27.0,30.34,NW,320,1.0,2.0,75,0.00,,,0.00,,2013-03-08 10:21:00,
2013-03-08 05:32:00,34.0,27.0,30.34,NNE,17,1.0,5.0,75,0.00,,,0.00,,2013-03-08 10:32:00,
2013-03-08 05:42:00,34.0,27.0,30.34,NNE,17,1.0,5.0,75,0.00,,,0.00,,2013-03-08 10:42:00,
2013-03-08 05:52:00,34.0,27.0,30.35,NE,35,1.0,6.0,75,0.00,,,0.00,,2013-03-08 10:52:00,
2013-03-08 06:01:00,34.0,27.0,30.35,NNE,20,1.0,4.0,75,0.00,,,0.00,,2013-03-08 11:01:00,
2013-03-08 06:11:00,34.0,27.0,30.35,NNE,20,1.0,4.0,75,0.00,,,0.00,,2013-03-08 11:11:00,
2013-03-08 06:21:00,34.0,27.0,30.36,NE,54,0.0,3.0,75,0.00,,,0.00,,2013-03-08 11:21:00,
2013-03-08 06:32:00,34.0,27.0,30.37,ENE,70,1.0,4.0,75,0.00,,,0.00,,2013-03-08 11:32:00,
2013-03-08 06:42:00,34.0,27.0,30.37,ENE,70,1.0,4.0,75,0.00,,,0.00,,2013-03-08 11:42:00,
2013-03-08 06:52:00,34.0,27.0,30.37,NNE,23,0.0,6.0,75,0.00,,,0.00,,2013-03-08 11:52:00,
2013-03-08 07:02:00,34.0,27.0,30.38,NE,43,2.0,4.0,75,0.00,,,0.00,,2013-03-08 12:02:00,
2013-03-08 07:11:00,34.0,27.0,30.38,NE,43,2.0,4.0,75,0.00,,,0.00,,2013-03-08 12:11:00,
2013-03-08 07:22:00,34.0,27.0,30.39,NE,55,2.0,5.0,75,0.00,,,0.00,,2013-03-08 12:22:00,
2013-03-08 07:32:00,35.0,28.0,30.39,NNE,19,1.0,5.0,75,0.00,,,0.00,,2013-03-08 12:32:00,
2013-03-08 07:43:00,35.0,28.0,30.39,NNE,19,1.0,5.0,75,0.00,,,0.00,,2013-03-08 12:43:00,
2013-03-08 07:53:00,35.0,28.0,30.39,ENE,59,1.0,7.0,75,0.00,,,0.00,,2013-03-08 12:53:00,
2013-03-08 08:01:00,35.0,28.0,30.40,NNE,19,1.0,6.0,75,0.00,,,0.00,,2013-03-08 13:01:00,
2013-03-08 08:11:00,35.0,28.0,30.40,NNE,19,1.0,6.0,75,0.00,,,0.00,,2013-03-08 13:11:00,
2013-03-08 08:22:00,36.0,29.0,30.40,NE,44,1.0,5.0,75,0.04,,,0.04,,2013-03-08 13:22:00,
2013-03-08 08:32:00,36.0,29.0,30.41,NNE,22,1.0,5.0,74,0.04,,,0.04,,2013-03-08 13:32:00,
2013-03-08 08:42:00,36.0,29.0,30.41,NNE,22,1.0,5.0,74,0.04,,,0.04,,2013-03-08 13:42:00,
2013-03-08 08:52:00,37.0,30.0,30.41,NNE,23,2.0,7.0,75,0.04,,,0.04,,2013-03-08 13:52:00,
2013-03-08 09:02:00,38.0,30.0,30.41,NNE,19,2.0,4.0,74,0.04,,,0.04,,2013-03-08 14:02:00,
2013-03-08 09:11:00,38.0,30.0,30.41,NNE,19,2.0,4.0,74,0.04,,,0.04,,2013-03-08 14:11:00,
2013-03-08 09:22:00,39.0,31.0,30.41,NE,44,2.0,7.0,74,0.00,,,0.04,,2013-03-08 14:22:00,
2013-03-08 09:32:00,40.0,32.0,30.41,ENE,63,2.0,7.0,73,0.00,,,0.04,,2013-03-08 14:32:00,
2013-03-08 09:42:00,40.0,32.0,30.41,ENE,63,2.0,7.0,73,0.00,,,0.04,,2013-03-08 14:42:00,
2013-03-08 09:53:00,41.0,33.0,30.41,NE,55,2.0,7.0,72,0.00,,,0.04,,2013-03-08 14:53:00,
2013-03-08 10:03:00,42.0,33.0,30.42,North,360,1.0,6.0,70,0.00,,,0.04,,2013-03-08 15:03:00,
2013-03-08 10:12:00,41.0,31.0,30.42,NE,47,2.0,6.0,67,0.00,,,0.04,,2013-03-08 15:12:00,
2013-03-08 10:22:00,41.0,31.0,30.42,NE,47,2.0,6.0,67,0.00,,,0.04,,2013-03-08 15:22:00,
2013-03-08 10:32:00,42.0,32.0,30.42,NW,305,2.0,7.0,68,0.00,,,0.04,,2013-03-08 15:32:00,
2013-03-08 10:42:00,42.0,32.0,30.42,NW,305,2.0,7.0,68,0.00,,,0.04,,2013-03-08 15:42:00,
2013-03-08 10:53:00,42.0,32.0,30.41,NW,306,3.0,7.0,67,0.00,,,0.04,,2013-03-08 15:53:00,
2013-03-08 11:01:00,43.0,32.0,30.42,North,5,2.0,5.0,66,0.00,,,0.04,,2013-03-08 16:01:00,
2013-03-08 11:11:00,43.0,32.0,30.42,North,5,2.0,5.0,66,0.00,,,0.04,,2013-03-08 16:11:00,
2013-03-08 11:22:00,43.0,32.0,30.41,ENE,59,3.0,7.0,64,0.00,,,0.04,,2013-03-08 16:22:00,
2013-03-08 11:32:00,43.0,32.0,30.41,ENE,70,2.0,6.0,65,0.00,,,0.04,,2013-03-08 16:32:00,
2013-03-08 11:42:00,43.0,32.0,30.41,ENE,70,2.0,6.0,65,0.00,,,0.04,,2013-03-08 16:42:00,
2013-03-08 11:52:00,43.0,32.0,30.42,NNW,341,2.0,6.0,65,0.00,,,0.04,,2013-03-08 16:52:00,
2013-03-08 12:03:00,43.0,33.0,30.42,East,88,2.0,8.0,67,0.00,,,0.04,,2013-03-08 17:03:00,
2013-03-08 12:11:00,43.0,33.0,30.42,East,88,2.0,8.0,67,0.00,,,0.04,,2013-03-08 17:11:00,
2013-03-08 12:21:00,43.0,33.0,30.42,East,93,2.0,7.0,68,0.00,,,0.04,,2013-03-08 17:21:00,
2013-03-08 12:32:00,43.0,33.0,30.41,West,280,2.0,7.0,68,0.00,,,0.04,,2013-03-08 17:32:00,
2013-03-08 12:42:00,43.0,33.0,30.41,West,280,2.0,7.0,68,0.00,,,0.04,,2013-03-08 17:42:00,
2013-03-08 12:52:00,43.0,31.0,30.40,West,272,2.0,7.0,63,0.00,,,0.04,,2013-03-08 17:52:00,
2013-03-08 13:02:00,44.0,31.0,30.40,NNW,332,1.0,6.0,61,0.00,,,0.04,,2013-03-08 18:02:00,
2013-03-08 13:11:00,44.0,31.0,30.40,NNW,332,1.0,6.0,61,0.00,,,0.04,,2013-03-08 18:11:00,
2013-03-08 13:21:00,43.0,27.0,30.40,WSW,256,2.0,7.0,52,0.00,,,0.04,,2013-03-08 18:21:00,
2013-03-08 13:32:00,43.0,27.0,30.39,NE,55,2.0,5.0,52,0.00,,,0.04,,2013-03-08 18:32:00,
2013-03-08 13:42:00,43.0,27.0,30.39,NE,55,2.0,5.0,52,0.00,,,0.04,,2013-03-08 18:42:00,
2013-03-08 13:52:00,43.0,27.0,30.39,West,275,2.0,7.0,52,0.00,,,0.04,,2013-03-08 18:52:00,
2013-03-08 14:01:00,43.0,26.0,30.39,SSW,208,0.0,3.0,50,0.00,,,0.04,,2013-03-08 19:01:00,
2013-03-08 14:11:00,43.0,26.0,30.39,SSW,208,0.0,3.0,50,0.00,,,0.04,,2013-03-08 19:11:00,
2013-03-08 14:22:00,43.0,25.0,30.38,NNE,22,0.0,3.0,49,0.00,,,0.04,,2013-03-08 19:22:00,
2013-03-08 14:32:00,43.0,27.0,30.38,NNW,346,0.0,3.0,52,0.00,,,0.04,,2013-03-08 19:32:00,
2013-03-08 14:42:00,43.0,27.0,30.38,NNW,346,0.0,3.0,52,0.00,,,0.04,,2013-03-08 19:42:00,
2013-03-08 14:52:00,44.0,28.0,30.38,SSW,207,2.0,3.0,54,0.00,,,0.04,,2013-03-08 19:52:00,
2013-03-08 15:01:00,43.0,28.0,30.38,WNW,302,0.0,4.0,54,0.00,,,0.04,,2013-03-08 20:01:00,
2013-03-08 15:11:00,43.0,28.0,30.38,WNW,302,0.0,4.0,54,0.00,,,0.04,,2013-03-08 20:11:00,
2013-03-08 15:22:00,43.0,28.0,30.38,SSW,213,1.0,5.0,56,0.00,,,0.04,,2013-03-08 20:22:00,
2013-03-08 15:32:00,45.0,30.0,30.39,NW,311,0.0,4.0,55,0.00,,,0.04,,2013-03-08 20:32:00,
2013-03-08 15:42:00,45.0,30.0,30.39,NW,311,0.0,4.0,55,0.00,,,0.04,,2013-03-08 20:42:00,
2013-03-08 15:53:00,44.0,28.0,30.39,SW,224,1.0,5.0,54,0.00,,,0.04,,2013-03-08 20:53:00,
2013-03-08 16:02:00,43.0,28.0,30.38,NNE,30,1.0,3.0,56,0.00,,,0.04,,2013-03-08 21:02:00,
2013-03-08 16:11:00,43.0,28.0,30.38,NNE,30,1.0,3.0,56,0.00,,,0.04,,2013-03-08 21:11:00,
2013-03-08 16:22:00,43.0,28.0,30.39,NW,323,2.0,5.0,56,0.00,,,0.04,,2013-03-08 21:22:00,
2013-03-08 16:32:00,42.0,27.0,30.39,NNW,343,0.0,2.0,56,0.00,,,0.04,,2013-03-08 21:32:00,
2013-03-08 16:42:00,42.0,27.0,30.39,NNW,343,0.0,2.0,56,0.00,,,0.04,,2013-03-08 21:42:00,
2013-03-08 16:52:00,42.0,28.0,30.39,NE,34,1.0,4.0,58,0.00,,,0.04,,2013-03-08 21:52:00,
2013-03-08 17:01:00,42.0,29.0,30.39,WSW,242,0.0,3.0,59,0.00,,,0.04,,2013-03-08 22:01:00,
2013-03-08 17:11:00,42.0,29.0,30.39,WSW,242,0.0,3.0,59,0.00,,,0.04,,2013-03-08 22:11:00,
2013-03-08 17:22:00,41.0,28.0,30.39,SSW,210,0.0,1.0,60,0.00,,,0.04,,2013-03-08 22:22:00,
2013-03-08 17:32:00,41.0,28.0,30.39,SSW,210,0.0,1.0,60,0.00,,,0.04,,2013-03-08 22:32:00,
2013-03-08 17:42:00,41.0,28.0,30.39,SSW,210,0.0,1.0,60,0.00,,,0.04,,2013-03-08 22:42:00,
2013-03-08 17:53:00,40.0,27.0,30.40,SSW,210,0.0,1.0,60,0.00,,,0.04,,2013-03-08 22:53:00,
2013-03-08 18:01:00,40.0,28.0,30.40,SSW,210,0.0,0.0,61,0.00,,,0.04,,2013-03-08 23:01:00,
2013-03-08 18:12:00,40.0,28.0,30.40,SSW,210,0.0,0.0,61,0.00,,,0.04,,2013-03-08 23:12:00,
2013-03-08 18:22:00,39.0,27.0,30.40,SSW,210,0.0,0.0,62,0.00,,,0.04,,2013-03-08 23:22:00,
2013-03-08 18:32:00,38.0,27.0,30.40,SSW,210,0.0,0.0,64,0.00,,,0.04,,2013-03-08 23:32:00,
2013-03-08 18:42:00,38.0,27.0,30.40,SSW,210,0.0,0.0,64,0.00,,,0.04,,2013-03-08 23:42:00,
2013-03-08 18:53:00,37.0,26.0,30.40,SSW,210,0.0,0.0,65,0.00,,,0.04,,2013-03-08 23:53:00,
2013-03-08 19:02:00,36.0,26.0,30.40,SSW,210,0.0,0.0,67,0.00,,,0.04,,2013-03-09 00:02:00,
2013-03-08 19:12:00,36.0,26.0,30.40,SSW,210,0.0,0.0,67,0.00,,,0.04,,2013-03-09 00:12:00,
2013-03-08 19:22:00,35.0,26.0,30.40,SSW,210,0.0,0.0,68,0.00,,,0.04,,2013-03-09 00:22:00,
2013-03-08 19:32:00,35.0,26.0,30.41,SSW,210,0.0,0.0,69,0.00,,,0.04,,2013-03-09 00:32:00,
2013-03-08 19:42:00,35.0,26.0,30.41,SSW,210,0.0,0.0,69,0.00,,,0.04,,2013-03-09 00:42:00,
2013-03-08 19:52:00,34.0,25.0,30.41,SSW,210,0.0,0.0,70,0.00,,,0.04,,2013-03-09 00:52:00,
2013-03-08 20:01:00,34.0,26.0,30.41,SSW,210,0.0,0.0,71,0.00,,,0.04,,2013-03-09 01:01:00,
2013-03-08 20:12:00,33.0,25.0,30.41,SSW,210,0.0,1.0,72,0.00,,,0.04,,2013-03-09 01:12:00,
2013-03-08 20:22:00,33.0,25.0,30.41,SSW,210,0.0,1.0,72,0.00,,,0.04,,2013-03-09 01:22:00,
2013-03-08 20:32:00,34.0,26.0,30.41,SSW,210,0.0,1.0,73,0.00,,,0.04,,2013-03-09 01:32:00,
2013-03-08 20:42:00,34.0,26.0,30.41,SSW,210,0.0,1.0,73,0.00,,,0.04,,2013-03-09 01:42:00,
2013-03-08 20:52:00,34.0,26.0,30.41,SSW,210,0.0,1.0,73,0.00,,,0.04,,2013-03-09 01:52:00,
2013-03-08 21:01:00,34.0,26.0,30.41,SSW,210,0.0,1.0,72,0.00,,,0.04,,2013-03-09 02:01:00,
2013-03-08 21:11:00,34.0,26.0,30.41,SSW,210,0.0,1.0,72,0.00,,,0.04,,2013-03-09 02:11:00,
2013-03-08 21:21:00,34.0,26.0,30.42,SSW,210,1.0,2.0,73,0.00,,,0.04,,2013-03-09 02:21:00,
2013-03-08 21:31:00,34.0,26.0,30.42,SSW,210,0.0,3.0,73,0.00,,,0.04,,2013-03-09 02:31:00,
2013-03-08 21:41:00,33.0,26.0,30.42,SSW,210,1.0,3.0,74,0.00,,,0.04,,2013-03-09 02:41:00,
2013-03-08 21:51:00,33.0,26.0,30.42,SSW,210,1.0,3.0,74,0.00,,,0.04,,2013-03-09 02:51:00,
2013-03-08 22:01:00,33.0,26.0,30.42,SSW,210,0.0,1.0,75,0.00,,,0.04,,2013-03-09 03:01:00,
2013-03-08 22:11:00,33.0,26.0,30.42,SSW,210,0.0,1.0,75,0.00,,,0.04,,2013-03-09 03:11:00,
2013-03-08 22:21:00,32.0,25.0,30.41,SSW,210,0.0,0.0,75,0.00,,,0.04,,2013-03-09 03:21:00,
2013-03-08 22:31:00,31.0,24.0,30.41,SSW,210,0.0,1.0,75,0.00,,,0.04,,2013-03-09 03:31:00,
2013-03-08 22:41:00,31.0,24.0,30.41,SSW,210,0.0,1.0,75,0.00,,,0.04,,2013-03-09 03:41:00,
2013-03-08 22:52:00,32.0,25.0,30.41,SSW,210,1.0,2.0,75,0.00,,,0.04,,2013-03-09 03:52:00,
2013-03-08 23:01:00,32.0,25.0,30.41,SSW,210,1.0,3.0,75,0.00,,,0.04,,2013-03-09 04:01:00,
2013-03-08 23:11:00,32.0,25.0,30.41,SSW,210,1.0,3.0,75,0.00,,,0.04,,2013-03-09 04:11:00,
2013-03-08 23:22:00,31.0,24.0,30.41,SSW,210,0.0,1.0,75,0.00,,,0.04,,2013-03-09 04:22:00,
2013-03-08 23:32:00,31.0,24.0,30.41,SSW,210,1.0,1.0,74,0.00,,,0.04,,2013-03-09 04:32:00,
2013-03-08 23:42:00,31.0,24.0,30.41,SSW,210,1.0,1.0,74,0.00,,,0.04,,2013-03-09 04:42:00,
2013-03-08 23:52:00,31.0,24.0,30.40,SSW,210,0.0,2.0,74,0.00,,,0.04,,2013-03-09 04:52:00,